SJ-23

导读 | 豆包AI

实践二十三号(SJ-23)是中国于北京时间2023年1月9日凌晨6时,在文昌航天发射场通过长征七号改运载火箭成功发射的国产卫星,本次任务采用“一箭三星”方式,同时搭载发射试验二十二号A/B星,三颗卫星均顺利进入预定轨道。实践二十三号主要用于开展空间科学试验、航天技术验证研究,此次任务是长征系列运载火箭第459次飞行,也是中国航天2023年发射任务的“开门红”,标志着中国航天技术持续推进创新验证。

基本信息
目录编号:
55131
目录名称:
SJ-23
国际标识:
2023-002A
轨道中心:
EARTH
卫星名称:
SJ-23
卫星全名:
--
卫星状态:
在轨 (已飞行1208 天)
发射日期:
2023-01-08 UTC
国别 :
中国 (CN)
星等 :
--
轨道信息
数据来源 国际轨道数据 AOE轨道数据
星历时间 2026-04-30T01:10:39+0800
20小时前
查看轨道信息
2026-04-27T21:00:00+0800
3天前
查看轨道信息
半长轴 42111.66km 42111.772km
偏心率 0.0006629 0.0006619
轨道倾角 3.595° 3.589°
近地点辐角 271.439° 271.063°
升交点赤经 78.906° 78.934°
平近点角 296.228° 230.291°
近地点 35705.607km 35705.761km
远地点 35761.439km 35761.509km
周期 1433.386分钟 1433.392分钟
每日圈数 1.004614 1.00461
详细信息
使用方式:
暂无
2D轨道图
3D轨道图
轨道高度分析图
轨道倾角分析图
轨道综合分析图
查看轨道综合分析图